P/2019 T5 ( ATLAS )

Japanese version
Home page
Updated on November 9, 2019

---------------------------------------------------------------------

* Profile

Discovery Date October 8, 2019
Magnitude 18.9 mag
Discoverer Asteroid Terrestrial-Impact Last Alert System (ATLAS) search program

* Orbital Elements

Epoch 2019 July 16.0 TT = JDT 2458680.5                                         
T 2019 Aug. 1.03177 TT                                  Williams                
q   1.5281234            (2000.0)            P               Q                  
n   0.04441405     Peri.  189.54931     +0.24630556     -0.82440679             
a   7.8968847      Node   247.68746     +0.92160477     +0.36195592             
e   0.8064904      Incl.   33.42452     +0.29996371     -0.43513372             
P  22.2                                                                         
From 53 observations 2019 Oct. 8-23, mean residual 0".5.                        

* Magnitudes Graph

        m1 = 14.5 + 5 log d + 10.0 log r

---------------------------------------------------------------------

The orbital elements are published on M.P.E.C. 2019-V116.
The magnitudes graphs are made with Comet for Windows.

---------------------------------------------------------------------

Copyright(C) Seiichi Yoshida (comet@aerith.net). All rights reserved.